• MPC Preparation (Info)

  • MPEC 2006-S33 : 2006 SU19

    The following Minor Planet Electronic Circular may be linked-to from your own Web pages, but must not otherwise be redistributed electronically.

    A form allowing access to any MPEC is at the bottom of this page.


    Read MPEC 2006-S32 Read MPEC 2006-S34


    M.P.E.C. 2006-S33                                Issued 2006 Sept. 20, 15:37 UT
    
         The Minor Planet Electronic Circulars contain information on unusual
             minor planets and routine data on comets.  They are published
       on behalf of Commission 20 of the International Astronomical Union by the
              Minor Planet Center, Smithsonian Astrophysical Observatory,
                              Cambridge, MA 02138, U.S.A.
    
                      Supported in part by the Brinson Foundation
                      Supported in part by the TABASGO Foundation
                 Prepared using the Tamkin Foundation Computer Network
    
                                  MPC@CFA.HARVARD.EDU
              URL http://cfa-www.harvard.edu/iau/mpc.html  ISSN 1523-6714
    
                                       2006 SU19
    
    Observations:
         K06S19U* C2006 09 18.33453 00 48 16.37 +03 00 35.4          21.9 V ES033291
         K06S19U  C2006 09 18.33866 00 48 16.02 +03 00 33.0          22.2 V ES033291
         K06S19U  C2006 09 18.34242 00 48 15.72 +03 00 30.6          21.8 V ES033291
         K06S19U  C2006 09 19.35709 00 46 50.25 +02 50 10.9          21.9 V ES033291
         K06S19U  C2006 09 19.36114 00 46 49.88 +02 50 08.3          21.9 V ES033291
         K06S19U  C2006 09 19.36517 00 46 49.54 +02 50 05.9          21.9 V ES033291
         K06S19U  C2006 09 20.47872 00 45 13.45 +02 38 32.5                 ES033291
         K06S19U  C2006 09 20.48276 00 45 13.08 +02 38 29.9                 ES033291
         K06S19U HC2006 09 20.48673 00 45 12.83 +02 38 26.5                 ES033291
    
    Observer details:
    291 LPL/Spacewatch II.  Observers R. S. McMillan, J. V. Scotti.  Measurer
        J. V. Scotti.  1.8-m f/2.7 reflector + CCD.
    
    Orbital elements:
    2006 SU19                                                Earth MOID = 0.0522 AU
    Epoch 2006 Sept. 22.0 TT = JDT 2454000.5                MPC
    M 278.82502              (2000.0)            P               Q
    n   0.42019986     Peri.  359.90849     -0.96192379     -0.27285548
    a   1.7653553      Node   164.22957     +0.25080131     -0.90429353
    e   0.7954487      Incl.    3.35182     +0.10863389     -0.32833382
    P   2.35           H   18.5           G   0.15           U   9
    Residuals in seconds of arc
    060918 291  0.1-  0.0     060919 291  0.1+  0.0     060920 291  0.4-  0.3+
    060918 291  0.1-  0.1+    060919 291  0.1-  0.1-    060920 291  0.6-  0.3+
    060918 291  0.2+  0.0     060919 291  0.0   0.0     060920 291  0.9+  0.6-
    
    Ephemeris:
    2006 SU19                a,e,i = 1.77, 0.80, 3                   q = 0.3611
    Date    TT    R. A. (2000) Decl.     Delta      r     Elong.  Phase     V
    2006 09 12    00 56.43   +04 00.3    1.593    2.539   154.4     9.9    22.2
    2006 09 17    00 50.10   +03 13.9    1.537    2.508   161.0     7.5    22.0
    2006 09 22    00 42.99   +02 22.4    1.487    2.477   167.8     4.9    21.7
    2006 09 27    00 35.22   +01 26.8    1.445    2.445   174.6     2.2    21.5
    2006 10 02    00 26.94   +00 28.0    1.412    2.412   176.9     1.3    21.3
    2006 10 07    00 18.35   -00 32.3    1.387    2.378   170.2     4.1    21.5
    2006 10 12    00 09.64   -01 32.6    1.371    2.343   163.0     7.2    21.6
    2006 10 17    00 01.05   -02 31.4    1.362    2.308   155.7    10.2    21.6
    2006 10 22    23 52.81   -03 26.9    1.362    2.271   148.5    13.2    21.7
    2006 10 27    23 45.11   -04 17.8    1.368    2.233   141.5    16.1    21.8
    2006 11 01    23 38.15   -05 03.0    1.380    2.194   134.6    18.8    21.9
    
    Timothy B. Spahr             (C) Copyright 2006 MPC           M.P.E.C. 2006-S33
    

    Read MPEC 2006-S32 Read MPEC 2006-S34


    MPEC number:

    Enter an MPEC number in one of the following forms:

    • 1997-B01 (the full form)
    • J97B01 (the packed version of the full form)
    • B01 (the abbreviated form)